This demonstration page uses our WeatherBlox Daily Observations layout. Learn more.

Left ArrowRight Arrow

47.50024, -111.30081

Hourly Observations for January 15, 2018

Temp ( °F °C ) Dew Point ( °F °C ) Humidity (%) Winds ( mph kmh ) Pressure ( in mb ) Visibility ( mi km ) Precip ( " mm )
12:05 am 00:05 Cloudy 23 -5 21 -6.1 92 92 ENE 8 13 30.77 1042 7 11 0.00 0.00
12:19 am 00:19 Cloudy 22 -5.6 20 -6.7 92 92 ENE 9 15 30.77 1042 10 16 0.00 0.00
12:33 am 00:33 Cloudy with Mist and Fog 22 -5.6 20 -6.7 92 92 ENE 8 13 30.77 1042 5 8 0.00 0.00
12:48 am 00:48 Cloudy with Mist and Fog 21 -6 19 -7 93 93 ENE 9 15 30.77 1042 5 8 0.00 0.00
12:53 am 00:53 Cloudy with Mist and Fog 21 -6.1 20 -6.7 96 96 ENE 9 15 30.72 1040 5 8 0.00 0.00
1:11 am 01:11 Cloudy with Mist and Fog 21 -6.1 20 -6.7 96 96 NE 7 11 30.77 1042 1 1 0.00 0.00
1:44 am 01:44 Cloudy with Mist and Fog 19 -7.2 17 -8.3 92 92 NE 9 15 30.80 1043 4 6 0.00 0.00
1:53 am 01:53 Cloudy with Mist and Fog 19 -7.2 17 -8.3 92 92 NE 12 19 30.74 1041 6 10 0.00 0.00
2:39 am 02:39 Cloudy 16 -8.9 12 -11.1 84 84 ENE 9 15 30.86 1045 10 16 0.00 0.00
2:51 am 02:51 Cloudy 16 -9 12 -11 86 86 ENE 8 13 30.86 1045 10 16 0.00 0.00
2:53 am 02:53 Cloudy 16 -8.9 12 -11.1 84 84 ENE 8 13 30.76 1042 10 16 0.00 0.00
3:53 am 03:53 Cloudy 17 -8.3 13 -10.6 84 84 E 7 11 30.76 1042 10 16 0.00 0.00
4:16 am 04:16 Cloudy 17 -8.3 13 -10.6 84 84 ENE 7 11 30.86 1045 10 16 0.00 0.00
4:53 am 04:53 Cloudy 16 -8.9 11 -11.7 80 80 E 9 15 30.76 1042 10 16 0.00 0.00
5:07 am 05:07 Cloudy 15 -9.4 11 -11.7 84 84 E 9 15 30.83 1044 10 16 0.00 0.00
5:53 am 05:53 Cloudy 15 -9.4 8 -13.3 74 74 E 6 9 30.77 1042 10 16 0.00 0.00
6:53 am 06:53 Cloudy 15 -9.4 9 -12.8 77 77 E 8 13 30.77 1042 10 16 0.00 0.00
7:53 am 07:53 Cloudy 13 -10.6 8 -13.3 81 81 E 7 11 30.78 1042 10 16 0.00 0.00
8:53 am 08:53 Mostly Cloudy 11 -11.7 6 -14.4 81 81 E 8 13 30.79 1043 10 16 0.00 0.00
9:09 am 09:09 Partly Cloudy 11 -11.7 6 -14.4 81 81 E 9 15 30.86 1045 10 16 0.00 0.00
9:28 am 09:28 Mostly Cloudy 11 -11.7 6 -14.4 81 81 E 9 15 30.86 1045 10 16 0.00 0.00
9:53 am 09:53 Cloudy 11 -11.7 6 -14.4 81 81 E 9 15 30.78 1042 10 16 0.00 0.00
10:53 am 10:53 Cloudy 15 -9.4 11 -11.7 84 84 E 8 13 30.77 1042 10 16 0.00 0.00
11:48 am 11:48 Partly Cloudy 18 -8 14 -10 86 86 E 5 7 30.77 1042 10 16 0.00 0.00
11:53 am 11:53 Mostly Sunny 18 -7.8 14 -10 84 84 E 5 7 30.73 1041 10 16 0.00 0.00
12:53 pm 12:53 Sunny 19 -7.2 13 -10.6 77 77 E 9 15 30.70 1040 10 16 0.00 0.00
1:53 pm 13:53 Sunny 19 -7.2 14 -10 81 81 E 8 13 30.68 1039 10 16 0.00 0.00
2:53 pm 14:53 Sunny 18 -7.8 13 -10.6 81 81 E 9 15 30.67 1039 10 16 0.00 0.00
3:53 pm 15:53 Sunny 14 -10 9 -12.8 80 80 E 10 17 30.66 1038 10 16 0.00 0.00
4:53 pm 16:53 Sunny 11 -11.7 7 -13.9 84 84 E 7 11 30.64 1038 10 16 0.00 0.00
5:53 pm 17:53 Clear 7 -13.9 4 -15.6 87 87 E 7 11 30.64 1038 10 16 0.00 0.00
6:53 pm 18:53 Clear 7 -13.9 4 -15.6 87 87 ESE 13 20 30.62 1037 10 16 0.00 0.00
7:53 pm 19:53 Clear 7 -13.9 4 -15.6 87 87 SE 7 11 30.60 1036 10 16 0.00 0.00
8:53 pm 20:53 Clear 19 -7.2 11 -11.7 71 71 S 12 19 30.55 1035 10 16 0.00 0.00
9:53 pm 21:53 Clear 23 -5 11 -11.7 60 60 S 20 31 30.53 1034 10 16 0.00 0.00
10:53 pm 22:53 Clear 23 -5 10 -12.2 57 57 S 20 31 30.50 1033 10 16 0.00 0.00
11:53 pm 23:53 Clear 23 -5 10 -12.2 57 57 S 18 30 30.46 1031 10 16 0.00 0.00

Powered by AerisWeather